[[{"header":{"parameterUnit":"m.s-1","parameterCategory":1,"la1":30.2991,"la2":30.254,"lo1":-89.0895,"lo2":-89.0444,"dy":0.0017,"dx":0.0017,"nx":28,"ny":28,"refTime":"2024-07-11T03:00:00:Z","depth":0,"parameterNumber":2,"parameterNumberName":"U-component_of_WINDS"},"data":[0,0,0,0,0,0,0,0,0,0,0,0,0,0,0,0,0,0,0,0,0,0,0,0,0,0,0,0,0,0,0,0,0,0,0,0,0,0,0,0,0,0,0,0,0,0,0,0,0,0,0,0,0,0,0,0,0,0,2.0664,2.0665,0,2.0746,2.0747,2.0748,2.0697,2.0694,2.0692,2.0689,2.0777,2.0782,2.0786,0,0,0,0,0,0,0,0,0,0,0,0,0,2.0463,2.0467,2.0664,2.0665,2.0666,2.0746,2.0747,2.0749,2.0697,2.0694,2.0691,2.0688,2.0776,2.0781,2.0786,0,0,0,0,0,0,0,0,0,0,0,0,0,2.0549,2.0469,2.0664,2.065,2.0649,2.0746,2.0747,2.0749,2.0698,2.0694,2.069,2.0687,2.0774,2.078,2.0787,2.0903,0,0,2.0808,2.0811,0,0,0,0,0,0,0,0,2.0544,2.0556,2.0651,2.0651,2.0651,2.0707,2.0709,2.0801,2.0699,2.0679,2.0689,2.0685,2.0757,2.0765,2.0789,2.0907,2.0911,2.0809,2.0813,2.0816,2.0818,0,0,0,0,0,0,0,2.0538,2.0552,2.0697,2.0652,2.0652,2.064,2.0648,2.0726,2.0738,2.0681,2.0677,2.0688,2.0756,2.0782,2.079,2.0912,2.0809,2.0815,2.0819,2.0822,2.1128,2.1132,0,0,0,0,0,0,2.0533,2.0548,2.0694,2.0699,2.0587,2.0647,2.0656,2.0693,2.0737,2.074,2.0691,2.0685,2.0772,2.0782,2.0793,2.0931,2.0816,2.0823,2.0827,2.1124,2.1129,2.1134,0,0,0,0,0,0,2.0529,2.0547,2.0691,2.0623,2.064,2.0654,2.0696,2.0697,2.0722,2.0744,2.0746,2.0715,2.077,2.0784,2.0876,2.0933,2.0826,2.0832,2.112,2.1126,2.1131,2.1208,0,0,0,0,0,0,2.0523,2.0545,2.059,2.0624,2.0644,2.0772,2.07,2.0701,2.0734,2.0727,2.0767,2.0771,2.0768,2.0866,2.0882,2.0941,2.0837,2.1115,2.1122,2.1129,2.12,2.1216,2.1229,0,0,0,0,0,2.0516,2.0609,2.0592,2.061,2.0699,2.0775,2.0786,2.0781,2.0739,2.0783,2.0797,2.0769,2.0924,2.0875,2.0894,2.0955,2.1111,2.112,2.1129,2.1194,2.1213,2.1229,0,0,0,0,0,0,2.0583,2.0613,2.0595,2.0701,2.0736,2.0766,2.0822,2.0801,2.0849,2.0841,2.0832,2.0842,2.0938,2.0956,2.0901,2.1069,2.1011,2.1024,2.1054,2.1072,2.1086,2.108,2.0843,0,0,0,0,0,2.0609,2.0668,2.0692,2.0783,2.0801,2.0809,2.0842,2.0834,2.087,2.0885,2.0905,2.0942,2.0998,2.1036,2.1089,2.1202,2.121,2.1253,2.1268,2.1279,2.1291,2.1351,2.137,2.1163,2.1163,2.1163,0,0,2.0666,2.069,2.0728,2.0797,2.0823,2.0884,2.0822,2.0889,2.0934,2.0895,2.0983,2.0999,2.1039,2.1142,2.1188,2.116,2.1349,2.1291,2.13,2.1305,2.1362,2.1381,2.1399,2.1169,2.1168,2.1167,0,0,2.08,2.0824,2.0902,2.0928,2.0967,2.0971,2.099,2.1023,2.1032,2.112,2.1091,2.1145,2.1243,2.1272,2.13,2.1442,2.1418,2.146,2.1535,2.1593,2.161,2.1624,2.1674,2.1693,2.1471,2.1471,2.1472,0,2.0866,2.0956,2.0945,2.1014,2.1045,2.101,2.1089,2.1116,2.1171,2.1194,2.116,2.1281,2.1306,2.1414,2.1449,2.1473,2.1494,2.1456,2.1608,2.1622,2.1636,2.1683,2.1702,2.1476,2.1476,2.1475,2.1475,0,2.1034,2.1097,2.1155,2.1207,2.1245,2.1319,2.1319,2.1359,2.1347,2.1354,2.1443,2.1471,2.1529,2.1554,2.1544,2.1661,2.1641,2.1609,2.155,2.166,2.1705,2.1723,2.1483,2.1481,2.148,2.1479,0,0,2.1214,2.1257,2.1279,2.1301,2.1341,2.139,2.1461,2.1516,2.155,2.1588,2.1648,2.1731,2.17,2.1731,2.1724,2.1775,2.1885,2.1735,2.1736,2.1762,2.2014,2.2039,2.206,2.1869,2.1872,2.1875,2.201,0,2.135,2.1474,2.1466,2.1583,2.164,2.1606,2.1669,2.17,2.1708,2.1758,2.1768,2.1826,2.1781,2.18,2.1848,2.1861,2.1935,2.1851,2.1925,2.1927,2.1916,2.2084,2.2111,2.2238,2.2028,2.2031,2.2033,0,2.1526,2.1569,2.1691,2.172,2.1743,2.18,2.1848,2.1896,2.193,2.1933,2.1967,2.195,2.2023,2.1962,2.2061,2.2004,2.2033,2.2044,2.2048,2.2056,2.1988,2.2096,2.2278,2.2297,2.2061,2.2059,2.2057,0,2.1645,2.1733,2.1817,2.1837,2.1873,2.1913,2.193,2.196,2.1993,2.2036,2.2057,2.2108,2.2136,2.2176,2.2174,2.213,2.2274,2.2213,2.2279,2.2279,2.2312,2.231,2.2501,2.233,2.233,2.2329,2.2329,0,2.1798,2.1875,2.1871,2.1923,2.2006,2.1995,2.2079,2.2092,2.2118,2.2172,2.2146,2.2197,2.2191,2.2242,2.2241,2.2323,2.2336,2.234,2.2339,2.2343,2.2342,2.2362,2.2354,2.2334,2.2333,2.2332,2.2331,0,2.1946,2.1947,2.2036,2.2061,2.2069,2.213,2.2152,2.2201,2.2206,2.2274,2.2289,2.2298,2.2357,2.2358,2.2426,2.2425,2.2525,2.2514,2.2513,2.2511,2.2576,2.257,2.2788,2.2816,2.2626,2.2628,2.263,0,2.2044,2.2102,2.2132,2.2165,2.2184,2.2239,2.2271,2.2262,2.2297,2.2339,2.2383,2.2439,2.2483,2.2579,2.2592,2.2643,2.2633,2.2706,2.2641,2.2642,2.2634,2.2631,2.2636,2.2719,2.2721,2.2723,2.2724,0,2.2218,2.2215,2.2262,2.2309,2.2348,2.2386,2.242,2.2449,2.2443,2.2484,2.2543,2.2577,2.2645,2.2701,2.275,2.2768,2.2746,2.2744,2.2762,2.2767,2.2764,2.2766,2.2548,2.274,2.2738,2.2737,2.2736,2.2735,2.2344,2.2393,2.2421,2.2475,2.2499,2.2531,2.2577,2.2587,2.2635,2.2689,2.268,2.2746,2.2777,2.284,2.2862,2.2914,2.2888,2.2914,2.2921,2.2928,2.2934,2.2755,2.2923,2.2922,2.2922,2.2921,2.2921,0,2.2517,2.2533,2.2581,2.2629,2.267,2.2643,2.2679,2.2716,2.2773,2.2803,2.2846,2.2913,2.2967,2.2982,2.3034,2.3072,2.3063,2.3086,2.3083,2.3088,2.2954,2.2934,2.3092,2.3092,2.3092,2.3092,2.3092,2.3092,2.2612,2.2692,2.2692,2.2783,2.2799,2.2862,2.2884,2.2913,2.2937,2.3012,2.3055,2.3064,2.3089,2.3141,2.3189,2.3192,2.3212,2.324,2.3239,2.3114,2.3097,2.3081,2.3061,2.3244,2.3244,2.3368,2.3369,2.337]},{"header":{"parameterUnit":"m.s-1","parameterCategory":1,"la1":30.2991,"la2":30.254,"lo1":-89.0895,"lo2":-89.0444,"dy":0.0017,"dx":0.0017,"nx":28,"ny":28,"refTime":"2024-07-11T03:00:00:Z","depth":0,"parameterNumber":3,"parameterNumberName":"V-component_of_WINDS"},"data":[0,0,0,0,0,0,0,0,0,0,0,0,0,0,0,0,0,0,0,0,0,0,0,0,0,0,0,0,0,0,0,0,0,0,0,0,0,0,0,0,0,0,0,0,0,0,0,0,0,0,0,0,0,0,0,0,0,0,-1.0039,-1.004,0,-1.0106,-1.0107,-1.0108,-1.0138,-1.0138,-1.0138,-1.0138,-1.0206,-1.0208,-1.021,0,0,0,0,0,0,0,0,0,0,0,0,0,-0.9938,-0.994,-1.0039,-1.004,-1.0041,-1.0106,-1.0107,-1.0108,-1.0138,-1.0138,-1.0138,-1.0138,-1.0206,-1.0208,-1.021,0,0,0,0,0,0,0,0,0,0,0,0,0,-0.9991,-0.9941,-1.0039,-1.0064,-1.0067,-1.0106,-1.0107,-1.0108,-1.0138,-1.0138,-1.0138,-1.0138,-1.0205,-1.0208,-1.0211,-1.023,0,0,-1.0219,-1.022,0,0,0,0,0,0,0,0,-0.9988,-0.9995,-1.0059,-1.0062,-1.0065,-1.0114,-1.0097,-1.0149,-1.0138,-1.0111,-1.0138,-1.0138,-1.0176,-1.0181,-1.0194,-1.0233,-1.0236,-1.0219,-1.0221,-1.0222,-1.0223,0,0,0,0,0,0,0,-0.9985,-0.9992,-1.0066,-1.006,-1.0064,-1.0072,-1.0079,-1.0107,-1.0143,-1.0113,-1.0116,-1.0123,-1.0177,-1.0191,-1.0196,-1.0237,-1.0219,-1.0222,-1.0224,-1.0225,-1.0298,-1.0298,0,0,0,0,0,0,-0.9977,-0.9989,-1.0064,-1.0068,-1.0026,-1.0074,-1.0082,-1.0098,-1.0143,-1.015,-1.0123,-1.0124,-1.0186,-1.0192,-1.0198,-1.0225,-1.0222,-1.0225,-1.0227,-1.0298,-1.0298,-1.0298,0,0,0,0,0,0,-0.9975,-0.9983,-1.0061,-1.0029,-1.004,-1.0076,-1.0094,-1.01,-1.0113,-1.015,-1.0157,-1.013,-1.0186,-1.0194,-1.0222,-1.0227,-1.0226,-1.0229,-1.0297,-1.0298,-1.0298,-1.0278,0,0,0,0,0,0,-0.9972,-0.9982,-0.999,-1.0029,-1.0041,-1.0084,-1.0094,-1.0101,-1.0118,-1.012,-1.0159,-1.0165,-1.0187,-1.0218,-1.0225,-1.0231,-1.0231,-1.0297,-1.0298,-1.0298,-1.0278,-1.0277,-1.0276,0,0,0,0,0,-0.9968,-0.9981,-0.999,-0.9999,-1.0051,-1.0084,-1.0091,-1.0115,-1.0118,-1.0127,-1.0151,-1.0164,-1.0226,-1.0221,-1.0229,-1.0236,-1.0297,-1.0297,-1.0298,-1.0278,-1.0277,-1.0276,0,0,0,0,0,0,-0.9941,-0.9986,-0.9997,-1.0023,-1.0049,-1.0089,-1.01,-1.0114,-1.0139,-1.014,-1.017,-1.0178,-1.0204,-1.0223,-1.0216,-1.0258,-1.0263,-1.0265,-1.0245,-1.0244,-1.0243,-1.0238,-1.0233,0,0,0,0,0,-0.9938,-0.9961,-0.9999,-1.0019,-1.0031,-1.0063,-1.0078,-1.0095,-1.0124,-1.0135,-1.0161,-1.0188,-1.0214,-1.023,-1.0256,-1.0281,-1.029,-1.029,-1.0289,-1.0289,-1.029,-1.0306,-1.0307,-1.03,-1.03,-1.03,0,0,-0.9932,-0.996,-0.9972,-1.0014,-1.0036,-1.0059,-1.0072,-1.0096,-1.0113,-1.0138,-1.0167,-1.0187,-1.0219,-1.0246,-1.026,-1.0263,-1.0294,-1.0289,-1.0288,-1.0291,-1.0307,-1.0307,-1.0308,-1.03,-1.03,-1.03,0,0,-0.9934,-0.9957,-0.9976,-0.9998,-1.0032,-1.0053,-1.0058,-1.0096,-1.011,-1.0139,-1.0159,-1.018,-1.0224,-1.0246,-1.0263,-1.0275,-1.0288,-1.0282,-1.0279,-1.0294,-1.0294,-1.0295,-1.0299,-1.03,-1.0284,-1.0284,-1.0284,0,-0.9922,-0.9957,-0.9984,-1.0007,-1.0025,-1.0049,-1.0069,-1.0089,-1.013,-1.0142,-1.0145,-1.0201,-1.0224,-1.0257,-1.026,-1.0273,-1.028,-1.0278,-1.0292,-1.0293,-1.0294,-1.0298,-1.03,-1.0283,-1.0283,-1.0283,-1.0283,0,-0.9942,-0.9966,-0.9978,-1.0017,-1.0036,-1.0057,-1.0087,-1.0104,-1.0119,-1.014,-1.017,-1.02,-1.0232,-1.0241,-1.0256,-1.0277,-1.0278,-1.0286,-1.0291,-1.0293,-1.0298,-1.03,-1.0281,-1.0282,-1.0282,-1.0282,0,0,-0.9928,-0.9982,-0.9985,-1.0004,-1.0043,-1.0063,-1.0085,-1.0117,-1.0131,-1.0159,-1.0179,-1.0216,-1.0224,-1.0243,-1.0262,-1.0275,-1.0283,-1.0282,-1.0283,-1.0281,-1.0308,-1.0302,-1.0303,-1.0292,-1.0293,-1.0293,-1.0306,0,-0.9935,-0.9976,-1.0001,-1.0033,-1.0056,-1.008,-1.01,-1.0127,-1.0147,-1.017,-1.0193,-1.0219,-1.0228,-1.024,-1.0254,-1.0279,-1.0289,-1.0278,-1.0312,-1.0312,-1.0303,-1.0306,-1.0299,-1.0309,-1.0308,-1.0308,-1.0308,0,-0.9948,-0.9975,-1.0009,-1.0047,-1.0058,-1.0075,-1.0107,-1.0129,-1.016,-1.0174,-1.0197,-1.0215,-1.0241,-1.0244,-1.028,-1.0273,-1.0288,-1.0302,-1.0303,-1.0307,-1.031,-1.031,-1.0313,-1.0315,-1.0311,-1.0311,-1.0311,0,-0.9935,-0.998,-1.0006,-1.0021,-1.0066,-1.0078,-1.0097,-1.0128,-1.0146,-1.0174,-1.0186,-1.0217,-1.0234,-1.0257,-1.0284,-1.0284,-1.0318,-1.0323,-1.0331,-1.033,-1.0336,-1.0336,-1.0342,-1.0346,-1.0346,-1.0346,-1.0346,0,-0.994,-0.996,-1.0001,-1.0017,-1.004,-1.0069,-1.0092,-1.0113,-1.0141,-1.0162,-1.0185,-1.0204,-1.0238,-1.0262,-1.0283,-1.031,-1.0317,-1.033,-1.0335,-1.0328,-1.0326,-1.0338,-1.0338,-1.0346,-1.0346,-1.0346,-1.0346,0,-0.9929,-0.9957,-0.9987,-1.0028,-1.0038,-1.0054,-1.0089,-1.0106,-1.0128,-1.0154,-1.0162,-1.0197,-1.0227,-1.0256,-1.0295,-1.0309,-1.0337,-1.0344,-1.0326,-1.0329,-1.0335,-1.0334,-1.0349,-1.0353,-1.0354,-1.0354,-1.0354,0,-0.993,-0.9946,-0.9988,-1.0004,-1.0023,-1.0048,-1.0067,-1.0096,-1.0115,-1.0152,-1.0165,-1.0196,-1.0223,-1.0269,-1.0298,-1.0329,-1.0337,-1.034,-1.0341,-1.0334,-1.0337,-1.0336,-1.0338,-1.0339,-1.0339,-1.0339,-1.0339,0,-0.993,-0.9943,-0.9969,-1.0,-1.0022,-1.0048,-1.0075,-1.0086,-1.0121,-1.0141,-1.0171,-1.0192,-1.0233,-1.0264,-1.0298,-1.0318,-1.0335,-1.0338,-1.0342,-1.0334,-1.0323,-1.033,-1.0324,-1.0337,-1.0338,-1.0338,-1.0338,-1.0338,-0.9925,-0.9941,-0.9973,-1.0002,-1.0025,-1.005,-1.0068,-1.0093,-1.0119,-1.0154,-1.017,-1.0201,-1.0233,-1.0281,-1.0301,-1.0326,-1.033,-1.0335,-1.0336,-1.0337,-1.0336,-1.0319,-1.0332,-1.0333,-1.0333,-1.0333,-1.0333,0,-0.9927,-0.9949,-0.9975,-1.0012,-1.0034,-1.0048,-1.0078,-1.0096,-1.0123,-1.0152,-1.0177,-1.0213,-1.0243,-1.0275,-1.0308,-1.0322,-1.033,-1.0329,-1.0329,-1.0333,-1.033,-1.0324,-1.0322,-1.0322,-1.0322,-1.0322,-1.0322,-1.0322,-0.993,-0.9958,-0.9975,-1.0014,-1.0037,-1.0067,-1.0084,-1.0107,-1.013,-1.0168,-1.0194,-1.0214,-1.0245,-1.028,-1.0309,-1.0317,-1.0328,-1.0326,-1.0336,-1.0333,-1.0333,-1.0334,-1.0328,-1.0328,-1.0328,-1.0338,-1.0338,-1.0338]}]]